Weather History for KVOK - October, 2010

Change the Weather History Date:

Friday, October 15, 2010

  Actual Average Record
Temperature  
Mean Temperature 46 °F -  
Max Temperature 59 °F 56 °F 71 °F (1999)
Min Temperature 34 °F 39 °F 32 °F (2012)
Degree Days  
Heating Degree Days 18    
Moisture  
Dew Point 38 °F    
Average Humidity 75    
Maximum Humidity 99    
Minimum Humidity 49    
Precipitation  
Precipitation 0.00 in - - ()
Sea Level Pressure  
Sea Level Pressure 30.08 in    
Wind  
Wind Speed 5 mph (WNW)    
Max Wind Speed 9 mph    
Max Gust Speed -    
Visibility 9 miles    
Events      
Averages and records for this station are not official NWS values.
T = Trace of Precipitation, MM = Missing Value Source: NWS Daily Summary

Daily Weather History Graph

Daily Weather History Graph

Search for Another Location

Airport or City:

Trip Planner

Search our weather history database for the weather conditions in past years. The results will help you decide how hot, cold, wet, or windy it might be!

Date:

Astronomy

Oct. 15, 2010 Rise Set
Actual Time 7:15 AM CDT 6:17 PM CDT
Civil Twilight 6:46 AM CDT 6:46 PM CDT
Nautical Twilight 6:13 AM CDT 7:19 PM CDT
Astronomical Twilight 5:39 AM CDT 7:53 PM CDT
Moon 2:53 PM CDT (10/15) No Moon Set
Length of Visible Light 11h 59m
Length of Day
11h 01m
First Quarter, 58% of the Moon is Illuminated
Oct 15
First Quarter
Oct 22
Full
Oct 30
Last Quarter
Nov 5
New
Nov 13
First Quarter

Hourly Weather History & Observations

Time (CDT) Temp. Windchill Dew Point Humidity Pressure Visibility Wind Dir Wind Speed Gust Speed Precip Events Conditions
12:55 AM 45.1 °F 41.4 °F 33.1 °F 63% 29.94 in 10.0 mi NW 6.9 mph - N/A   Clear
1:55 AM 44.1 °F 39.0 °F 34.0 °F 68% 29.96 in 10.0 mi NW 9.2 mph - N/A   Clear
2:55 AM 36.1 °F 30.6 °F 32.2 °F 86% 29.98 in 10.0 mi WNW 6.9 mph - N/A   Clear
3:55 AM 39.6 °F 35.4 °F 34.9 °F 83% 29.99 in 10.0 mi NW 5.8 mph - N/A   Clear
4:55 AM 35.4 °F 30.5 °F 34.2 °F 95% 30.02 in 10.0 mi WNW 5.8 mph - N/A   Clear
5:55 AM 34.3 °F 30.2 °F 33.6 °F 97% 30.04 in 10.0 mi WNW 4.6 mph - N/A   Clear
6:55 AM 35.6 °F 30.7 °F 33.8 °F 93% 30.07 in 10.0 mi West 5.8 mph - N/A   Clear
7:55 AM 37.4 °F 32.8 °F 35.6 °F 93% 30.10 in 10.0 mi West 5.8 mph - N/A   Clear
8:55 AM 44.6 °F 42.2 °F 41.0 °F 87% 30.12 in 10.0 mi WNW 4.6 mph - N/A   Clear
9:55 AM 50.0 °F - 42.8 °F 76% 30.14 in 10.0 mi NNE 4.6 mph - N/A   Clear
10:55 AM 53.6 °F - 42.8 °F 67% 30.14 in 10.0 mi Variable 4.6 mph - N/A   Scattered Clouds
11:55 AM 57.2 °F - 42.8 °F 59% 30.14 in 10.0 mi Calm Calm - N/A   Scattered Clouds
12:55 PM 59.0 °F - 41.0 °F 51% 30.13 in 10.0 mi East 4.6 mph - N/A   Mostly Cloudy
1:55 PM 59.0 °F - 41.0 °F 51% 30.12 in 10.0 mi Variable 3.5 mph - N/A   Scattered Clouds
2:55 PM 59.0 °F - 41.0 °F 51% 30.12 in 10.0 mi WNW 3.5 mph - N/A   Mostly Cloudy
3:55 PM 59.0 °F - 41.0 °F 51% 30.12 in 10.0 mi West 3.5 mph - N/A   Scattered Clouds
4:55 PM 59.9 °F - 40.8 °F 49% 30.10 in 10.0 mi Calm Calm - N/A   Clear
5:55 PM 57.2 °F - 41.0 °F 55% 30.11 in 10.0 mi Calm Calm - N/A   Clear
8:55 PM 35.6 °F 31.7 °F 35.4 °F 99% 30.10 in 5.0 mi SE 4.6 mph - N/A   Clear
9:55 PM 35.2 °F 32.4 °F 35.1 °F 99% 30.10 in 4.0 mi ESE 3.5 mph - N/A   Clear
10:55 PM 35.6 °F - 35.2 °F 99% 30.11 in 5.0 mi Calm Calm - N/A   Clear
11:55 PM 44.1 °F 39.5 °F 40.5 °F 87% 30.10 in 10.0 mi South 8.1 mph - N/A   Clear